QPF
0.00 0.00 0.00 0.00 0.00 0.00 0.00 0.00 0.00 0.00 0.00 0.00 0.00 0.00 0.00 0.00 0.00 0.00 0.00 0.00 0.00 0.00 0.00 0.00 0.00 0.00 0.00 0.00 0.00 0.00 0.00 0.00 0.00 0.00 0.00 0.00 0.00 0.00 0.00 0.00 0.00 0.00 0.00 0.00
0.00 0.00 0.00 0.00 0.00 0.00 0.00 0.00 0.00 0.00 0.00 0.00 0.00 0.00 0.00 0.00 0.00 0.00 0.00 0.00 0.00 0.00 0.00 0.00 0.00 0.00 0.00 0.00 0.00 0.00 0.00 0.00 0.00 0.00 0.00 0.00 0.00 0.00 0.00 0.00 0.00 0.00 0.00 0.00
0.00 0.00 0.00 0.00 0.00 0.00 0.00 0.00 0.00 0.00 0.00 0.00 0.00 0.00 0.00 0.00 0.01 0.02 0.00 0.01 0.00 0.00 0.00 0.00 0.00 0.00 0.00 0.00 0.00 0.00 0.00 0.00 0.00 0.00 0.00 0.00 0.00 0.00 0.00 0.00 0.00 0.00 0.00 0.00
0.00 0.00 0.00 0.00 0.00 0.00 0.00 0.00 0.00 0.00 0.00 0.00 0.00 0.00 0.00 0.00 0.00 0.00 0.01 0.01 0.01 0.00 0.00 0.00 0.00 0.00 0.00 0.00 0.00 0.00 0.00 0.00 0.00 0.00 0.00 0.00 0.00 0.00 0.00 0.00 0.00 0.00 0.00 0.00
0.00 0.00 0.00 0.00 0.00 0.00 0.00 0.00 0.00 0.00 0.00 0.00 0.00 0.00 0.00 0.00 0.00 0.00 0.00 0.00 0.01 0.01 0.00 0.00 0.00 0.00 0.00 0.00 0.00 0.00 0.00 0.00 0.00 0.00 0.00 0.00 0.00 0.00 0.00 0.00 0.00 0.00 0.00 0.00
0.00 0.00 0.00 0.00 0.00 0.00 0.00 0.00 0.00 0.00 0.00 0.00 0.00 0.00 0.00 0.00 0.00 0.00 0.00 0.00 0.02 0.06 0.05 0.01 0.00 0.01 0.01 0.00 0.00 0.00 0.00 0.00 0.00 0.00 0.00 0.00 0.00 0.00 0.00 0.00 0.00 0.00 0.00 0.00
0.00 0.00 0.00 0.00 0.00 0.00 0.00 0.00 0.00 0.00 0.00 0.00 0.00 0.00 0.00 0.00 0.00 0.00 0.00 0.00 0.03 0.08 0.08 0.00 0.00 0.00 0.00 0.00 0.00 0.01 0.02 0.01 0.00 0.00 0.00 0.00 0.00 0.00 0.01 0.00 0.00 0.00 0.00 0.00
0.00 0.00 0.00 0.00 0.00 0.00 0.00 0.00 0.00 0.00 0.00 0.00 0.00 0.00 0.00 0.00 0.00 0.00 0.00 0.02 0.08 0.12 0.09 0.03 0.00 0.00 0.00 0.00 0.00 0.00 0.00 0.00 0.00 0.00 0.01 0.00 0.00 0.00 0.03 0.04 0.03 0.00 0.00 0.00
0.00 0.00 0.00 0.00 0.00 0.00 0.00 0.00 0.00 0.00 0.00 0.00 0.00 0.00 0.00 0.00 0.00 0.00 0.02 0.06 0.09 0.12 0.07 0.02 0.00 0.00 0.01 0.01 0.00 0.01 0.01 0.02 0.00 0.01 0.00 0.00 0.00 0.00 0.00 0.00 0.00 0.00 0.00 0.00
0.00 0.00 0.00 0.00 0.00 0.00 0.00 0.00 0.00 0.00 0.00 0.00 0.00 0.00 0.00 0.00 0.02 0.03 0.02 0.03 0.04 0.03 0.11 0.13 0.00 0.03 0.17 0.08 0.03 0.02 0.02 0.02 0.00 0.00 0.00 0.00 0.00 0.00 0.03 0.03 0.03 0.01 0.01 0.00
0.00 0.00 0.00 0.00 0.00 0.00 0.00 0.00 0.00 0.00 0.00 0.00 0.00 0.00 0.00 0.00 0.00 0.00 0.01 0.04 0.07 0.09 0.16 0.17 0.13 0.17 0.29 0.16 0.09 0.05 0.00 0.00 0.00 0.00 0.00 0.00 0.00 0.00 0.00 0.00 0.00 0.01 0.05 0.09
0.00 0.00 0.00 0.00 0.00 0.00 0.00 0.00 0.00 0.00 0.00 0.00 0.00 0.00 0.00 0.00 0.00 0.00 0.00 0.00 0.00 0.00 0.02 0.05 0.05 0.05 0.08 0.04 0.01 0.00 0.00 0.00 0.00 0.00 0.00 0.00 0.00 0.00 0.00 0.00 0.00 0.01 0.04 0.15
0.00 0.00 0.00 0.00 0.00 0.00 0.00 0.00 0.00 0.00 0.00 0.00 0.00 0.00 0.00 0.00 0.00 0.00 0.00 0.00 0.00 0.00 0.00 0.00 0.00 0.00 0.00 0.00 0.00 0.00 0.00 0.00 0.00 0.00 0.00 0.00 0.00 0.00 0.00 0.00 0.00 0.00 0.02 0.09
0.00 0.00 0.00 0.00 0.00 0.00 0.00 0.00 0.00 0.00 0.00 0.00 0.00 0.00 0.00 0.00 0.00 0.00 0.00 0.00 0.00 0.00 0.00 0.00 0.00 0.00 0.00 0.00 0.00 0.00 0.00 0.00 0.00 0.00 0.00 0.00 0.00 0.00 0.00 0.00 0.00 0.00 0.00 0.00
0.00 0.00 0.00 0.00 0.00 0.00 0.00 0.00 0.00 0.00 0.00 0.00 0.00 0.00 0.00 0.00 0.00 0.00 0.00 0.00 0.00 0.00 0.00 0.00 0.00 0.00 0.00 0.00 0.00 0.00 0.00 0.00 0.00 0.00 0.00 0.00 0.00 0.00 0.00 0.00 0.00 0.00 0.00 0.00
0.00 0.00 0.00 0.00 0.00 0.00 0.00 0.00 0.00 0.00 0.00 0.00 0.00 0.00 0.00 0.00 0.00 0.00 0.00 0.00 0.00 0.00 0.00 0.00 0.00 0.00 0.00 0.00 0.00 0.00 0.00 0.00 0.00 0.00 0.00 0.00 0.00 0.00 0.00 0.00 0.00 0.00 0.00 0.00
0.00 0.00 0.00 0.00 0.00 0.00 0.00 0.00 0.00 0.00 0.00 0.00 0.00 0.00 0.00 0.00 0.00 0.00 0.00 0.00 0.00 0.00 0.00 0.00 0.00 0.00 0.00 0.00 0.00 0.00 0.00 0.00 0.00 0.00 0.00 0.00 0.00 0.00 0.00 0.00 0.00 0.00 0.00 0.00
0.00 0.00 0.00 0.00 0.00 0.00 0.00 0.00 0.00 0.00 0.00 0.00 0.00 0.00 0.00 0.00 0.00 0.00 0.00 0.00 0.00 0.00 0.00 0.00 0.00 0.00 0.00 0.00 0.00 0.00 0.00 0.00 0.00 0.00 0.00 0.00 0.00 0.00 0.00 0.00 0.00 0.00 0.00 0.00
0.00 0.00 0.00 0.00 0.00 0.00 0.00 0.00 0.00 0.00 0.00 0.00 0.00 0.00 0.00 0.00 0.00 0.00 0.00 0.00 0.00 0.00 0.00 0.00 0.00 0.00 0.00 0.00 0.00 0.00 0.00 0.00 0.00 0.00 0.00 0.00 0.00 0.00 0.00 0.00 0.00 0.00 0.00 0.00
0.00 0.00 0.00 0.00 0.00 0.00 0.00 0.00 0.00 0.00 0.00 0.00 0.00 0.00 0.00 0.00 0.00 0.00 0.00 0.00 0.00 0.00 0.00 0.00 0.00 0.00 0.00 0.00 0.00 0.00 0.00 0.00 0.00 0.00 0.00 0.00 0.00 0.00 0.00 0.00 0.00 0.00 0.00 0.00
0.00 0.00 0.00 0.00 0.00 0.00 0.00 0.00 0.00 0.00 0.00 0.00 0.00 0.00 0.00 0.00 0.00 0.00 0.00 0.00 0.00 0.00 0.00 0.00 0.00 0.00 0.00 0.00 0.00 0.00 0.00 0.00 0.00 0.00 0.00 0.00 0.00 0.00 0.00 0.00 0.00 0.00 0.00 0.00
0.00 0.00 0.00 0.00 0.00 0.00 0.00 0.00 0.00 0.00 0.00 0.00 0.00 0.00 0.00 0.00 0.00 0.00 0.00 0.00 0.00 0.00 0.00 0.00 0.00 0.00 0.00 0.00 0.00 0.00 0.00 0.00 0.00 0.00 0.00 0.00 0.00 0.00 0.00 0.00 0.00 0.00 0.00 0.00
0.00 0.00 0.00 0.00 0.00 0.00 0.00 0.00 0.00 0.00 0.00 0.00 0.00 0.00 0.00 0.00 0.00 0.00 0.00 0.00 0.00 0.00 0.00 0.00 0.00 0.00 0.00 0.00 0.00 0.00 0.00 0.00 0.00 0.00 0.00 0.00 0.00 0.00 0.00 0.00 0.01 0.01 0.00 0.00
0.00 0.00 0.00 0.00 0.00 0.00 0.00 0.00 0.00 0.00 0.00 0.00 0.00 0.00 0.00 0.00 0.00 0.00 0.00 0.00 0.00 0.00 0.00 0.00 0.00 0.00 0.00 0.00 0.00 0.00 0.00 0.00 0.00 0.00 0.01 0.01 0.00 0.01 0.00 0.00 0.01 0.01 0.01 0.01
0.00 0.00 0.00 0.00 0.00 0.00 0.00 0.00 0.00 0.00 0.00 0.00 0.00 0.00 0.00 0.00 0.00 0.00 0.00 0.00 0.00 0.00 0.00 0.00 0.00 0.00 0.00 0.00 0.00 0.00 0.00 0.00 0.01 0.03 0.05 0.02 0.01 0.02 0.01 0.01 0.01 0.01 0.01 0.01
0.00 0.00 0.00 0.00 0.00 0.00 0.00 0.00 0.00 0.00 0.00 0.00 0.00 0.00 0.00 0.00 0.00 0.00 0.00 0.00 0.00 0.00 0.00 0.00 0.00 0.00 0.00 0.00 0.00 0.00 0.00 0.00 0.03 0.10 0.10 0.09 0.05 0.04 0.04 0.01 0.00 0.01 0.02 0.02
MSLP
1007.93 1008.40 1008.53 1008.67 1008.90 1008.86 1009.03 1009.57 1009.72 1009.52 1009.54 1010.13 1010.85 1011.48 1011.95 1012.36 1013.00 1013.71 1014.10 1014.42 1014.73 1014.84 1014.77 1015.10 1015.39 1015.96 1016.57 1017.14 1017.64 1017.84 1018.37 1018.67 1019.01 1019.32 1019.58 1019.74 1019.75 1019.71 1019.64 1019.46 1019.41 1019.58 1019.76 1019.89
1008.30 1008.13 1007.81 1007.74 1008.03 1008.42 1008.74 1009.45 1009.60 1009.42 1009.67 1010.39 1011.17 1011.60 1011.85 1012.05 1012.21 1012.88 1013.55 1013.98 1014.28 1014.79 1014.93 1015.04 1015.31 1015.63 1016.00 1016.47 1017.11 1017.68 1017.91 1018.31 1018.67 1018.89 1019.11 1019.26 1019.33 1019.35 1019.29 1019.20 1019.28 1019.34 1019.47 1019.67
1008.34 1007.77 1007.69 1007.43 1007.72 1008.24 1008.63 1009.02 1009.37 1009.83 1010.35 1011.02 1011.55 1012.17 1012.15 1012.15 1012.43 1012.97 1013.26 1013.61 1013.93 1014.25 1014.74 1014.94 1015.04 1015.31 1015.84 1016.33 1016.65 1017.06 1017.48 1017.88 1018.15 1018.67 1019.04 1019.30 1019.32 1019.37 1019.37 1019.22 1019.15 1019.03 1019.10 1019.22
1008.17 1007.46 1007.43 1007.33 1007.77 1008.34 1008.68 1008.93 1009.45 1010.34 1011.17 1011.87 1012.01 1012.98 1012.56 1012.40 1012.48 1012.74 1013.14 1013.42 1013.80 1013.95 1014.23 1014.66 1015.13 1015.50 1015.76 1015.88 1016.24 1016.72 1017.14 1017.54 1017.99 1018.35 1018.84 1019.07 1019.14 1019.34 1019.20 1019.02 1018.91 1018.88 1018.89 1018.95
1008.06 1007.60 1007.51 1007.64 1007.94 1008.47 1009.15 1009.30 1010.33 1011.12 1012.30 1012.87 1013.27 1013.78 1013.71 1012.78 1013.09 1012.49 1012.80 1013.13 1013.64 1013.99 1014.12 1014.56 1014.78 1014.91 1015.30 1015.76 1016.15 1016.70 1017.14 1017.49 1017.79 1018.24 1018.53 1018.90 1019.20 1019.12 1018.96 1019.02 1018.96 1018.83 1018.65 1018.73
1008.32 1007.77 1007.64 1007.50 1007.88 1008.38 1009.22 1010.31 1011.69 1012.93 1013.72 1014.70 1014.85 1014.89 1014.81 1014.52 1014.12 1013.40 1013.05 1013.43 1013.96 1014.46 1014.68 1014.43 1014.76 1014.95 1015.33 1015.66 1016.15 1016.54 1017.04 1017.54 1017.92 1018.37 1018.72 1018.84 1019.06 1019.09 1019.17 1019.05 1019.02 1018.72 1018.49 1018.36
1009.11 1008.43 1007.89 1007.68 1008.29 1009.08 1010.02 1011.86 1013.70 1015.08 1015.69 1015.88 1015.69 1015.59 1015.16 1014.63 1013.85 1012.86 1012.86 1013.65 1014.39 1014.74 1015.49 1015.50 1015.49 1015.56 1015.79 1016.03 1016.09 1016.71 1016.95 1017.49 1017.85 1018.01 1018.25 1018.41 1018.59 1018.87 1018.98 1018.94 1018.79 1018.47 1018.20 1018.02
1009.95 1009.46 1008.54 1008.23 1008.69 1009.80 1011.23 1012.44 1014.16 1015.82 1016.97 1016.70 1016.10 1016.20 1015.58 1014.78 1014.20 1013.63 1013.62 1014.08 1014.57 1015.40 1015.89 1016.39 1016.38 1015.87 1016.15 1016.18 1016.46 1016.77 1016.97 1017.26 1017.23 1017.52 1017.75 1017.75 1017.93 1018.08 1018.22 1018.16 1018.13 1017.79 1017.57 1017.29
1010.36 1009.90 1009.09 1008.81 1009.09 1010.06 1011.90 1013.19 1014.22 1015.98 1017.62 1017.55 1017.12 1016.39 1015.75 1015.63 1015.30 1015.21 1015.09 1015.18 1015.54 1015.72 1015.95 1016.56 1016.94 1016.55 1016.87 1016.66 1016.93 1016.92 1017.33 1017.37 1017.56 1017.69 1017.64 1017.76 1017.83 1017.88 1017.91 1017.84 1017.57 1017.21 1016.74 1016.48
1010.70 1010.73 1010.15 1009.77 1010.05 1010.90 1011.65 1013.38 1014.86 1016.30 1017.99 1018.61 1018.04 1017.43 1017.40 1016.85 1016.80 1016.51 1016.51 1016.58 1016.64 1016.50 1017.05 1017.41 1017.51 1017.66 1018.10 1018.08 1018.09 1018.09 1017.97 1017.97 1017.99 1017.97 1017.99 1018.01 1018.07 1018.02 1017.83 1017.43 1017.20 1016.43 1015.89 1015.70
1010.83 1011.33 1011.60 1011.07 1011.91 1012.25 1012.72 1013.89 1015.64 1017.11 1018.14 1018.62 1019.22 1018.68 1018.37 1018.16 1017.85 1017.60 1017.65 1017.75 1017.70 1017.89 1018.02 1018.27 1018.43 1018.61 1018.78 1019.14 1019.02 1018.97 1018.75 1018.55 1018.48 1018.36 1018.33 1018.25 1018.18 1018.01 1017.69 1017.32 1016.87 1016.25 1015.65 1015.48
1011.59 1012.46 1013.19 1013.24 1012.80 1012.88 1013.13 1014.32 1015.49 1017.14 1018.87 1019.11 1018.97 1019.64 1019.14 1018.86 1018.73 1018.42 1018.62 1018.70 1018.86 1018.97 1019.12 1019.20 1019.48 1019.65 1019.88 1019.55 1019.40 1019.22 1018.90 1018.64 1018.74 1018.52 1018.58 1018.40 1018.18 1017.96 1017.70 1017.24 1016.73 1016.17 1015.71 1015.21
1011.52 1013.35 1014.39 1014.35 1013.84 1013.46 1013.92 1014.61 1015.63 1016.68 1017.58 1019.16 1019.56 1020.22 1019.68 1019.63 1019.52 1019.57 1019.53 1019.74 1019.71 1019.84 1019.90 1020.09 1019.97 1020.25 1020.25 1020.34 1020.24 1019.93 1019.52 1019.14 1018.81 1018.63 1018.35 1017.94 1017.72 1017.52 1017.18 1016.75 1016.41 1015.95 1015.51 1015.07
1011.52 1014.44 1014.59 1014.85 1014.77 1014.67 1014.82 1015.09 1015.62 1016.56 1017.83 1019.13 1019.42 1019.95 1020.34 1020.36 1020.35 1020.48 1020.48 1020.66 1020.72 1020.81 1020.85 1020.90 1020.85 1020.93 1020.86 1020.60 1020.35 1020.08 1019.66 1019.51 1019.10 1018.79 1018.44 1017.99 1017.69 1017.22 1016.85 1016.39 1015.96 1015.60 1015.27 1014.99
1012.95 1015.34 1015.59 1015.70 1015.34 1015.11 1015.39 1015.62 1015.90 1016.60 1017.53 1018.35 1019.25 1020.06 1020.52 1020.80 1020.95 1021.25 1021.24 1021.21 1021.19 1021.39 1021.51 1021.67 1021.72 1021.53 1021.29 1020.89 1020.63 1020.39 1020.04 1019.50 1019.16 1018.74 1017.92 1017.42 1017.07 1016.84 1016.56 1016.22 1015.70 1015.22 1014.90 1014.50
1014.28 1016.06 1016.34 1016.71 1016.13 1015.79 1016.15 1016.34 1016.57 1017.06 1018.11 1018.81 1019.42 1020.52 1020.79 1021.26 1021.55 1021.99 1022.21 1022.40 1022.68 1022.88 1023.15 1023.11 1022.93 1022.88 1022.84 1022.69 1022.42 1021.97 1021.30 1020.63 1020.14 1019.35 1018.74 1018.05 1017.31 1016.72 1016.10 1015.55 1015.18 1014.84 1014.40 1014.02
1015.24 1016.52 1017.43 1017.69 1017.13 1016.72 1017.19 1017.42 1017.47 1017.86 1018.14 1018.53 1019.61 1020.12 1020.93 1021.68 1022.10 1022.50 1022.88 1023.12 1023.37 1023.51 1023.60 1023.62 1023.60 1023.41 1023.07 1022.81 1022.62 1022.12 1021.52 1020.91 1020.29 1019.57 1018.75 1017.98 1017.19 1016.45 1015.73 1015.10 1014.66 1014.25 1013.95 1013.71
1015.82 1017.14 1017.82 1018.67 1018.16 1018.38 1018.38 1017.65 1017.62 1018.20 1018.84 1019.16 1019.70 1020.40 1020.99 1021.56 1022.18 1022.81 1023.29 1023.52 1023.69 1023.96 1024.11 1024.23 1024.30 1024.21 1024.02 1023.60 1023.05 1022.45 1021.61 1020.78 1019.98 1019.02 1018.21 1017.51 1016.86 1016.14 1015.53 1015.00 1014.51 1014.03 1013.56 1013.04
1015.41 1016.84 1018.68 1019.13 1019.53 1019.57 1018.91 1018.06 1017.73 1018.13 1019.45 1019.63 1020.07 1020.73 1021.27 1021.91 1022.68 1023.11 1023.45 1023.71 1023.80 1024.23 1024.47 1024.60 1024.60 1024.46 1024.05 1023.51 1022.89 1022.40 1021.68 1020.87 1020.08 1019.09 1018.11 1017.38 1016.69 1015.86 1015.17 1014.47 1013.97 1013.46 1013.01 1012.27
1015.89 1016.38 1017.57 1019.20 1019.38 1019.19 1017.74 1017.19 1017.20 1017.77 1019.07 1019.32 1020.01 1020.70 1021.34 1022.09 1023.06 1023.16 1023.42 1023.89 1024.36 1024.64 1024.80 1024.77 1024.54 1024.12 1023.65 1022.90 1022.35 1021.82 1021.08 1020.25 1019.34 1018.59 1017.86 1017.08 1016.40 1015.61 1014.70 1014.07 1013.34 1012.76 1012.27 1011.38
1016.72 1017.67 1018.50 1019.02 1018.96 1018.34 1017.35 1017.10 1017.42 1018.29 1019.04 1019.02 1019.82 1020.61 1021.50 1022.33 1022.50 1022.85 1023.34 1023.84 1024.12 1024.33 1024.43 1024.34 1024.08 1023.65 1022.95 1022.29 1021.79 1021.18 1020.32 1019.34 1018.49 1017.73 1016.90 1016.07 1015.30 1014.52 1013.66 1012.78 1012.14 1011.70 1011.13 1010.52
1017.06 1018.01 1018.97 1019.49 1019.04 1018.07 1017.17 1017.50 1017.92 1018.19 1018.50 1018.88 1019.83 1020.69 1021.47 1021.95 1022.41 1022.73 1023.15 1023.64 1023.89 1024.00 1023.88 1023.84 1023.55 1022.97 1022.37 1021.87 1021.33 1020.55 1019.47 1018.51 1017.84 1017.08 1016.18 1014.97 1013.98 1013.01 1012.01 1011.22 1010.58 1010.27 1010.00 1009.33
1017.31 1017.60 1018.04 1018.77 1018.41 1017.64 1017.33 1017.40 1017.56 1017.99 1018.50 1019.42 1020.11 1020.92 1021.61 1022.34 1022.61 1022.83 1023.16 1023.47 1023.55 1023.57 1023.51 1023.30 1023.19 1022.76 1021.89 1021.30 1020.69 1019.74 1018.67 1017.98 1017.27 1016.31 1015.10 1013.86 1012.53 1011.42 1010.52 1009.68 1008.78 1008.57 1008.52 1008.08
1017.21 1017.29 1017.93 1018.47 1018.25 1017.89 1017.73 1017.78 1017.93 1018.23 1018.68 1019.41 1020.12 1020.91 1021.69 1022.10 1022.34 1022.77 1023.20 1023.39 1023.37 1023.20 1023.11 1022.94 1022.65 1022.23 1021.40 1020.53 1019.94 1019.20 1018.23 1017.64 1016.77 1015.70 1014.27 1012.67 1011.08 1009.78 1008.84 1007.94 1007.23 1006.69 1006.66 1006.46
1017.17 1017.30 1017.99 1018.50 1018.25 1018.09 1017.64 1017.73 1017.92 1018.54 1019.01 1019.71 1020.43 1020.94 1021.48 1022.09 1022.30 1022.71 1023.14 1023.10 1023.00 1022.86 1022.64 1022.42 1022.16 1021.85 1020.81 1019.93 1019.41 1018.13 1017.29 1016.79 1016.18 1015.07 1013.53 1011.72 1010.12 1008.60 1007.16 1005.85 1005.04 1004.68 1004.57 1004.69
1016.87 1016.93 1017.51 1017.39 1017.02 1017.09 1016.98 1016.89 1017.54 1018.39 1018.91 1019.55 1020.28 1021.02 1021.41 1021.76 1022.07 1022.49 1022.70 1022.55 1022.71 1022.60 1022.33 1022.08 1021.48 1021.14 1019.83 1019.14 1018.33 1017.18 1016.25 1015.85 1015.35 1014.41 1012.85 1011.36 1009.94 1008.33 1006.43 1004.60 1002.91 1002.79 1002.87 1002.72
Thickness
5799 5783 5772 5785 5791 5797 5797 5785 5785 5793 5804 5794 5787 5784 5789 5796 5791 5785 5783 5780 5779 5782 5789 5791 5791 5787 5783 5781 5778 5778 5775 5774 5773 5772 5770 5770 5771 5773 5776 5778 5780 5779 5778 5777
5781 5775 5800 5805 5800 5797 5793 5781 5782 5800 5802 5795 5783 5784 5792 5797 5799 5797 5791 5789 5787 5783 5784 5788 5790 5790 5789 5785 5781 5778 5780 5778 5775 5775 5775 5774 5775 5776 5777 5778 5779 5780 5780 5779
5773 5790 5799 5803 5797 5789 5791 5778 5786 5786 5791 5792 5783 5773 5782 5795 5797 5794 5798 5797 5795 5791 5788 5789 5791 5791 5789 5785 5783 5783 5781 5779 5779 5775 5772 5771 5772 5773 5773 5775 5777 5780 5781 5782
5778 5797 5795 5793 5790 5787 5780 5799 5791 5779 5771 5751 5782 5740 5767 5783 5787 5792 5789 5791 5792 5795 5796 5794 5791 5788 5788 5789 5789 5786 5784 5781 5778 5776 5772 5770 5769 5767 5772 5774 5777 5777 5778 5780
5775 5785 5786 5783 5787 5788 5781 5792 5785 5780 5757 5758 5758 5742 5753 5774 5772 5786 5792 5793 5793 5795 5795 5791 5790 5791 5792 5790 5788 5786 5783 5780 5778 5775 5774 5769 5766 5768 5772 5773 5773 5774 5775 5776
5777 5792 5791 5792 5791 5792 5787 5775 5757 5743 5737 5724 5735 5731 5731 5745 5758 5777 5787 5788 5787 5787 5787 5789 5790 5792 5789 5790 5786 5783 5781 5777 5776 5773 5769 5769 5768 5768 5767 5769 5770 5773 5775 5776
5760 5770 5784 5794 5780 5782 5769 5745 5711 5714 5707 5710 5724 5723 5746 5756 5774 5786 5788 5784 5782 5782 5776 5777 5778 5780 5780 5779 5783 5780 5778 5774 5773 5774 5772 5771 5769 5767 5766 5767 5769 5771 5774 5774
5727 5730 5769 5782 5777 5762 5751 5746 5709 5702 5690 5706 5725 5707 5724 5760 5770 5777 5781 5780 5780 5772 5770 5765 5769 5777 5778 5778 5777 5776 5774 5773 5774 5771 5771 5772 5770 5769 5768 5768 5768 5771 5773 5777
5725 5735 5767 5775 5777 5770 5748 5729 5737 5695 5690 5696 5710 5727 5742 5747 5754 5759 5762 5766 5763 5765 5765 5756 5759 5767 5765 5768 5768 5771 5766 5766 5765 5765 5768 5767 5766 5765 5765 5766 5770 5773 5777 5778
5734 5722 5750 5761 5765 5756 5756 5738 5716 5695 5685 5681 5696 5703 5705 5725 5725 5739 5741 5746 5748 5755 5750 5745 5750 5752 5749 5751 5753 5753 5755 5755 5755 5757 5758 5758 5758 5758 5760 5764 5766 5773 5779 5779
5733 5723 5731 5739 5725 5727 5728 5722 5698 5688 5680 5675 5667 5686 5708 5708 5720 5723 5728 5731 5733 5734 5737 5736 5735 5737 5738 5736 5737 5739 5742 5744 5747 5748 5749 5750 5750 5752 5755 5758 5762 5767 5773 5773
5728 5706 5695 5715 5729 5730 5731 5719 5703 5688 5686 5668 5675 5673 5700 5706 5711 5719 5721 5722 5723 5726 5725 5726 5725 5726 5725 5728 5729 5731 5735 5738 5738 5741 5740 5742 5744 5746 5748 5751 5754 5759 5762 5768
5729 5695 5678 5690 5706 5722 5715 5718 5697 5687 5682 5676 5673 5666 5695 5696 5698 5703 5706 5710 5713 5714 5713 5712 5713 5712 5714 5713 5713 5715 5719 5723 5726 5728 5732 5736 5737 5739 5742 5745 5748 5751 5753 5757
5728 5681 5691 5676 5690 5697 5704 5707 5704 5693 5678 5666 5669 5671 5681 5684 5685 5687 5689 5692 5694 5694 5695 5696 5697 5696 5698 5700 5701 5703 5707 5707 5711 5714 5718 5722 5725 5729 5732 5735 5740 5743 5745 5748
5714 5683 5688 5687 5692 5699 5692 5694 5699 5702 5684 5685 5672 5667 5669 5675 5676 5677 5679 5682 5682 5681 5681 5679 5678 5678 5679 5682 5683 5685 5687 5692 5694 5698 5706 5712 5714 5715 5717 5721 5727 5732 5736 5739
5696 5674 5686 5679 5682 5689 5680 5680 5682 5678 5671 5666 5668 5658 5666 5664 5664 5663 5663 5663 5660 5658 5656 5656 5657 5656 5654 5653 5654 5656 5660 5664 5668 5674 5679 5684 5693 5700 5705 5710 5713 5717 5722 5727
5684 5666 5661 5662 5664 5674 5662 5662 5667 5665 5666 5666 5656 5656 5657 5652 5652 5650 5647 5645 5643 5641 5638 5637 5636 5636 5637 5637 5635 5638 5642 5646 5649 5654 5661 5667 5673 5680 5688 5694 5698 5701 5705 5709
5672 5658 5646 5642 5651 5639 5646 5661 5664 5655 5653 5652 5651 5649 5649 5648 5643 5635 5631 5630 5629 5625 5623 5620 5618 5617 5615 5616 5618 5619 5624 5628 5633 5640 5644 5648 5652 5659 5666 5671 5677 5682 5686 5693
5676 5658 5634 5634 5615 5629 5641 5649 5655 5650 5642 5648 5642 5640 5640 5635 5627 5626 5622 5620 5618 5613 5609 5605 5603 5601 5600 5603 5605 5603 5606 5611 5613 5617 5624 5628 5632 5639 5644 5651 5657 5662 5667 5678
5667 5659 5650 5626 5628 5613 5637 5657 5658 5651 5626 5642 5636 5630 5628 5622 5610 5615 5610 5606 5600 5596 5593 5592 5591 5589 5589 5591 5591 5590 5592 5596 5601 5602 5606 5608 5610 5615 5623 5629 5636 5643 5648 5660
5643 5638 5633 5625 5624 5627 5643 5653 5649 5622 5621 5636 5631 5625 5617 5610 5610 5606 5598 5592 5587 5583 5580 5578 5576 5576 5575 5578 5576 5576 5578 5581 5584 5586 5590 5593 5596 5597 5602 5612 5619 5623 5631 5641
5644 5631 5622 5612 5615 5623 5645 5642 5627 5631 5630 5631 5624 5616 5610 5606 5602 5597 5590 5582 5577 5572 5571 5569 5565 5565 5562 5560 5559 5561 5564 5564 5564 5566 5570 5577 5584 5586 5589 5594 5603 5609 5611 5621
5638 5634 5626 5625 5620 5630 5636 5638 5636 5628 5625 5619 5613 5606 5599 5592 5587 5584 5577 5572 5568 5564 5560 5558 5552 5549 5549 5547 5545 5549 5549 5546 5547 5550 5559 5566 5573 5577 5579 5583 5590 5593 5598 5607
5637 5632 5624 5625 5626 5628 5629 5629 5626 5623 5620 5611 5605 5596 5586 5584 5579 5572 5565 5559 5555 5552 5549 5547 5544 5540 5541 5539 5538 5537 5533 5531 5534 5539 5548 5561 5568 5573 5575 5576 5580 5582 5587 5595
5629 5630 5617 5614 5619 5621 5624 5622 5620 5613 5608 5601 5592 5586 5579 5570 5568 5560 5552 5547 5545 5544 5543 5540 5538 5535 5534 5532 5529 5533 5528 5525 5525 5529 5541 5556 5560 5566 5570 5574 5576 5580 5585 5587
5629 5624 5617 5613 5626 5624 5625 5626 5616 5606 5600 5593 5583 5573 5566 5561 5556 5548 5542 5541 5537 5536 5536 5533 5533 5531 5530 5529 5528 5529 5528 5524 5522 5526 5538 5550 5553 5557 5564 5569 5580 5579 5580 5586